WA4FG Weather Reports


Display with metric or nautical units.
time (UTC)temp
F
wind
direction
speed
MPH
gust
MPH
rain 1hr
in
rain 24hr
in
rain mn
in
humidity
%
barometer
mb
20260906222548 91 131 0.0 0.0 0.00 0.00 0.00 66 1009.5
20260906221521 92 131 0.0 0.0 0.00 0.00 0.00 63 1009.5
20260906221020 92 131 0.0 0.0 0.00 0.00 0.00 62 1009.4
20260906220507 92 131 0.0 0.0 0.00 0.00 0.00 61 1009.3
20260906220008 92 131 0.0 0.0 0.00 0.00 0.00 59 1009.3
20260906215440 93 131 0.0 0.0 0.00 0.00 0.00 61 1009.1
20260906214921 93 131 0.0 0.0 0.00 0.00 0.00 60 1009.1
20260906214403 94 131 0.0 0.0 0.00 0.00 0.00 58 1009.1
20260906213403 94 131 0.0 0.0 0.00 0.00 0.00 58 1009.2
20260906212848 94 131 0.0 0.0 0.00 0.00 0.00 56 1009.3
20260906212347 95 131 0.0 0.0 0.00 0.00 0.00 55 1009.3
20260906211847 95 131 0.0 0.0 0.00 0.00 0.00 53 1009.3
20260906210835 96 131 0.0 0.0 0.00 0.00 0.00 56 1009.4
20260906205321 96 131 0.0 0.0 0.00 0.00 0.00 49 1009.4
20260906204819 97 131 0.0 0.0 0.00 0.00 0.00 50 1009.6
20260906203813 97 131 0.0 0.0 0.00 0.00 0.00 48 1009.6
20260906203311 98 131 0.0 0.0 0.00 0.00 0.00 47 1009.7
20260906202723 98 131 0.0 0.0 0.00 0.00 0.00 46 1009.7
20260906201717 98 131 0.0 1.0 0.00 0.00 0.00 46 1009.7
20260906200714 98 246 0.0 0.0 0.00 0.00 0.00 44 1009.6
20260906200212 98 268 0.0 0.0 0.00 0.00 0.00 44 1009.6
20260906195712 98 197 0.0 1.0 0.00 0.00 0.00 43 1009.5
20260906195208 98 229 0.0 1.0 0.00 0.00 0.00 43 1009.6
20260906194140 98 158 0.0 0.0 0.00 0.00 0.00 42 1009.8
20260906193637 98 158 0.0 0.0 0.00 0.00 0.00 42 1009.9
20260906193134 98 167 0.0 0.0 0.00 0.00 0.00 47 1010.0
20260906192624 98 171 0.0 0.0 0.00 0.00 0.00 44 1010.1
20260906192105 98 161 0.0 0.0 0.00 0.00 0.00 45 1010.2
20260906191603 98 188 0.0 0.0 0.00 0.00 0.00 46 1010.3
20260906191101 98 171 0.0 0.0 0.00 0.00 0.00 46 1010.4
20260906190534 98 171 0.0 1.0 0.00 0.00 0.00 46 1010.5
20260906190007 98 147 0.0 0.0 0.00 0.00 0.00 47 1010.6
20260906185456 97 147 0.0 0.0 0.00 0.00 0.00 49 1010.8
20260906184953 97 147 0.0 1.0 0.00 0.00 0.00 49 1010.8
20260906184426 97 146 0.0 1.0 0.00 0.00 0.00 49 1010.9
20260906183901 97 148 0.0 1.0 0.00 0.00 0.00 50 1010.9
20260906183341 97 145 0.0 1.0 0.00 0.00 0.00 49 1010.9
20260906182837 97 146 0.0 0.0 0.00 0.00 0.00 50 1011.1
20260906181800 98 165 0.0 5.0 0.00 0.00 0.00 51 1011.2
20260906181232 98 157 0.0 1.0 0.00 0.00 0.00 52 1011.2
20260906180702 98 221 0.0 2.0 0.00 0.00 0.00 52 1011.3
20260906180201 97 227 0.0 0.0 0.00 0.00 0.00 52 1011.4
20260906175641 97 185 0.0 0.0 0.00 0.00 0.00 54 1011.5
20260906175100 97 211 0.0 0.0 0.00 0.00 0.00 53 1011.7
20260906174534 97 265 0.0 1.0 0.00 0.00 0.00 53 1011.7
20260906174008 96 329 0.0 0.0 0.00 0.00 0.00 54 1011.7
20260906173505 96 241 0.0 0.0 0.00 0.00 0.00 54 1011.8
20260906173004 96 238 0.0 0.0 0.00 0.00 0.00 55 1011.8
20260906171423 95 146 0.0 0.0 0.00 0.00 0.00 54 1012.1
20260906170919 95 183 0.0 0.0 0.00 0.00 0.00 56 1012.1
20260906170416 94 182 0.0 0.0 0.00 0.00 0.00 57 1012.2
20260906165851 94 171 0.0 0.0 0.00 0.00 0.00 57 1012.3
20260906165338 94 170 0.0 0.0 0.00 0.00 0.00 58 1012.4
20260906164838 94 170 0.0 0.0 0.00 0.00 0.00 57 1012.5
20260906164332 94 238 0.0 0.0 0.00 0.00 0.00 57 1012.5
20260906163302 93 234 0.0 0.0 0.00 0.00 0.00 60 1012.7
20260906162750 92 234 0.0 0.0 0.00 0.00 0.00 60 1012.7
20260906162251 92 234 0.0 1.0 0.00 0.00 0.00 59 1012.7
20260906161741 92 234 0.0 1.0 0.00 0.00 0.00 61 1012.7
20260906161214 91 244 0.0 0.0 0.00 0.00 0.00 62 1012.8
20260906160647 91 205 0.0 1.0 0.00 0.00 0.00 62 1012.8
20260906160146 90 126 0.0 1.0 0.00 0.00 0.00 63 1013.0
20260906155641 90 107 0.0 0.0 0.00 0.00 0.00 63 1013.0
20260906155138 89 96 0.0 0.0 0.00 0.00 0.00 66 1012.9
20260906154625 89 28 0.0 0.0 0.00 0.00 0.00 67 1013.0
20260906154119 89 22 0.0 0.0 0.00 0.00 0.00 69 1013.0
20260906153617 88 22 0.0 0.0 0.00 0.00 0.00 68 1012.9
20260906153048 88 154 0.0 0.0 0.00 0.00 0.00 68 1013.0
20260906152547 88 138 0.0 0.0 0.00 0.00 0.00 68 1013.0
20260906152031 88 157 0.0 0.0 0.00 0.00 0.00 70 1013.1
20260906151533 88 155 0.0 0.0 0.00 0.00 0.00 69 1013.0
20260906151009 87 155 0.0 1.0 0.00 0.00 0.00 70 1013.0
20260906150507 87 155 0.0 1.0 0.00 0.00 0.00 70 1013.0
20260906145939 86 202 0.0 0.0 0.00 0.00 0.00 72 1012.9
20260906145438 85 190 0.0 0.0 0.00 0.00 0.00 74 1013.0
20260906144423 84 79 0.0 0.0 0.00 0.00 0.00 75 1012.9
20260906143900 84 211 0.0 0.0 0.00 0.00 0.00 78 1012.9
20260906143328 83 211 0.0 0.0 0.00 0.00 0.00 76 1012.9
20260906142759 83 211 0.0 0.0 0.00 0.00 0.00 78 1012.9
20260906142254 83 211 0.0 0.0 0.00 0.00 0.00 79 1012.8
20260906141245 81 211 0.0 0.0 0.00 0.00 0.00 81 1012.9
20260906140742 80 211 0.0 0.0 0.00 0.00 0.00 82 1012.8
20260906140215 80 211 0.0 0.0 0.00 0.00 0.00 84 1012.9
20260906135714 79 211 0.0 0.0 0.00 0.00 0.00 85 1013.0
20260906135211 79 211 0.0 0.0 0.00 0.00 0.00 86 1013.1
20260906134710 79 211 0.0 0.0 0.00 0.00 0.00 88 1013.3
20260906134203 78 211 0.0 0.0 0.00 0.00 0.00 88 1013.3
20260906133639 78 211 0.0 0.0 0.00 0.00 0.00 89 1013.4
20260906133140 78 211 0.0 0.0 0.00 0.00 0.00 90 1013.4
20260906132633 78 211 0.0 0.0 0.00 0.00 0.00 91 1013.4
20260906132056 78 211 0.0 0.0 0.00 0.00 0.00 91 1013.5
20260906131556 78 211 0.0 0.0 0.00 0.00 0.00 91 1013.4
20260906131055 77 211 0.0 0.0 0.00 0.00 0.00 92 1013.3
20260906130106 77 211 0.0 0.0 0.00 0.00 0.00 92 1012.9
20260906125553 77 211 0.0 0.0 0.00 0.00 0.00 92 1012.9
20260906125028 77 211 0.0 0.0 0.00 0.00 0.00 92 1012.9
20260906124457 77 211 0.0 0.0 0.00 0.00 0.00 91 1012.9
20260906123958 77 211 0.0 0.0 0.00 0.00 0.00 91 1013.0
20260906122920 77 211 0.0 0.0 0.00 0.00 0.00 90 1012.7
20260906122352 77 211 0.0 0.0 0.00 0.00 0.00 90 1012.6
20260906121847 77 211 0.0 0.0 0.00 0.00 0.00 90 1012.5
20260906121344 77 211 0.0 0.0 0.00 0.00 0.00 90 1012.4
20260906120828 77 211 0.0 0.0 0.00 0.00 0.00 90 1012.3
20260906120330 77 211 0.0 0.0 0.00 0.00 0.00 90 1012.2
20260906115748 77 211 0.0 0.0 0.00 0.00 0.00 90 1012.2
20260906115224 77 211 0.0 0.0 0.00 0.00 0.00 89 1012.3
20260906114655 77 211 0.0 0.0 0.00 0.00 0.00 89 1012.4
20260906114134 77 211 0.0 0.0 0.00 0.00 0.00 89 1012.4
20260906113613 77 211 0.0 0.0 0.00 0.00 0.00 88 1012.4
20260906113113 77 211 0.0 0.0 0.00 0.00 0.00 88 1012.6
20260906112613 77 211 0.0 0.0 0.00 0.00 0.00 88 1012.5
20260906112049 77 211 0.0 0.0 0.00 0.00 0.00 88 1012.5
20260906111548 77 211 0.0 0.0 0.00 0.00 0.00 87 1012.5
20260906111048 78 211 0.0 0.0 0.00 0.00 0.00 87 1012.6
20260906110545 78 211 0.0 0.0 0.00 0.00 0.00 87 1012.6
20260906110045 78 211 0.0 0.0 0.00 0.00 0.00 86 1012.5
20260906105524 78 211 0.0 0.0 0.00 0.00 0.00 86 1012.6
20260906103902 78 241 0.0 0.0 0.00 0.00 0.00 85 1012.7
20260906103344 78 241 0.0 0.0 0.00 0.00 0.00 84 1012.7
20260906102840 78 241 0.0 0.0 0.00 0.00 0.00 84 1012.7
20260906102316 78 241 0.0 2.0 0.00 0.00 0.00 84 1012.7
20260906101752 78 241 0.0 2.0 0.00 0.00 0.00 83 1012.7
20260906101252 78 241 0.0 4.0 0.00 0.00 0.00 83 1012.7
20260906100802 78 302 0.0 4.0 0.00 0.00 0.00 85 1012.5
20260906100251 79 219 0.0 2.0 0.00 0.00 0.00 87 1012.6
20260906094654 79 52 0.0 0.0 0.00 0.00 0.00 88 1011.9
20260906094149 79 52 0.0 0.0 0.00 0.00 0.00 90 1011.9
20260906093650 79 52 0.0 0.0 0.00 0.00 0.00 91 1011.9
20260906093111 79 52 0.0 0.0 0.00 0.00 0.00 93 1011.9
20260906092041 79 52 0.0 0.0 0.00 0.00 0.00 94 1011.9
20260906091523 79 52 0.0 0.0 0.00 0.00 0.00 94 1011.8
20260906091035 79 52 0.0 0.0 0.00 0.00 0.00 94 1011.7
20260906090520 79 52 0.0 0.0 0.00 0.00 0.00 95 1011.8
20260906090021 79 52 0.0 0.0 0.00 0.00 0.00 95 1011.9
20260906085455 79 52 0.0 0.0 0.00 0.00 0.00 95 1011.8
20260906084427 78 52 0.0 0.0 0.00 0.00 0.00 95 1011.8
20260906083900 78 52 0.0 0.0 0.00 0.00 0.00 96 1011.9
20260906083344 78 52 0.0 0.0 0.00 0.00 0.00 96 1011.9
20260906082846 78 52 0.0 0.0 0.00 0.00 0.00 96 1012.0
20260906082329 78 52 0.0 0.0 0.00 0.00 0.00 96 1012.2
20260906081328 78 52 0.0 0.0 0.00 0.00 0.00 96 1012.2
20260906080841 78 52 0.0 0.0 0.00 0.00 0.00 96 1012.4
20260906080303 78 52 0.0 0.0 0.00 0.00 0.00 96 1012.5
20260906075752 78 52 0.0 0.0 0.00 0.00 0.00 95 1012.5
20260906075249 78 52 0.0 0.0 0.00 0.00 0.00 95 1012.3
20260906074722 78 52 0.0 0.0 0.00 0.00 0.00 95 1012.0
20260906074220 78 52 0.0 0.0 0.00 0.00 0.00 95 1011.9
20260906071614 78 52 0.0 0.0 0.00 0.00 0.00 95 1012.1
20260906070615 78 52 0.0 0.0 0.00 0.00 0.00 95 1012.0
20260906070109 78 52 0.0 0.0 0.00 0.00 0.00 95 1012.0
20260906065603 78 52 0.0 0.0 0.00 0.00 0.00 95 1012.1
20260906064534 78 52 0.0 0.0 0.00 0.00 0.00 94 1012.2
20260906063527 78 52 0.0 0.0 0.00 0.00 0.00 94 1012.4
20260906063011 78 52 0.0 0.0 0.00 0.00 0.00 94 1012.3
20260906062513 78 52 0.0 0.0 0.00 0.00 0.00 94 1012.5
20260906061946 78 52 0.0 0.0 0.00 0.00 0.00 94 1012.5
20260906061413 78 52 0.0 0.0 0.00 0.00 0.00 94 1012.5
20260906060909 78 52 0.0 0.0 0.00 0.00 0.00 94 1012.6
20260906060408 78 52 0.0 0.0 0.00 0.00 0.00 94 1012.6
20260906055324 78 52 0.0 0.0 0.00 0.00 0.00 93 1012.5
20260906054758 78 52 0.0 0.0 0.00 0.00 0.00 93 1012.6
20260906054231 78 52 0.0 0.0 0.00 0.00 0.00 93 1012.8
20260906053221 78 52 0.0 0.0 0.00 0.00 0.00 93 1012.8
20260906052654 78 52 0.0 0.0 0.00 0.00 0.00 93 1012.7
20260906052144 78 52 0.0 0.0 0.00 0.00 0.00 93 1012.7
20260906051641 78 52 0.0 0.0 0.00 0.00 0.00 93 1012.7
20260906051117 78 52 0.0 0.0 0.00 0.00 0.00 93 1012.8
20260906050552 79 52 0.0 0.0 0.00 0.00 0.00 93 1013.0
20260906050024 79 52 0.0 0.0 0.00 0.00 0.00 93 1012.9
20260906044509 79 52 0.0 0.0 0.00 0.00 0.00 91 1012.7
20260906043941 79 52 0.0 0.0 0.00 0.00 0.00 91 1012.6
20260906043439 79 52 0.0 0.0 0.00 0.00 0.00 91 1012.5
20260906042911 79 52 0.0 0.0 0.00 0.00 0.00 91 1012.7
20260906042409 79 52 0.0 0.0 0.00 0.00 0.00 91 1012.7
20260906041912 79 52 0.0 0.0 0.00 0.00 0.00 91 1012.7
20260906041333 80 52 0.0 0.0 0.00 0.00 0.00 91 1012.7
20260906040805 80 52 0.0 0.0 0.00 0.00 0.00 90 1012.6
20260906040302 80 52 0.0 0.0 0.00 0.00 0.00 90 1012.7
20260906035736 80 52 0.0 0.0 0.00 0.00 0.00 90 1012.7
20260906035230 80 52 0.0 0.0 0.00 0.00 0.00 90 1012.7
20260906034721 80 52 0.0 0.0 0.00 0.00 0.00 90 1012.7
20260906034208 80 52 0.0 0.0 0.00 0.00 0.00 89 1012.7
20260906033709 80 52 0.0 0.0 0.00 0.00 0.00 89 1012.7
20260906033143 80 52 0.0 0.0 0.00 0.00 0.00 88 1012.9
20260906032641 81 52 0.0 1.0 0.00 0.00 0.00 88 1012.7
20260906032140 81 52 0.0 1.0 0.00 0.00 0.00 88 1012.6
20260906031642 81 52 0.0 0.0 0.00 0.00 0.00 88 1012.6
20260906030548 81 52 0.0 0.0 0.00 0.00 0.00 87 1012.6
20260906030046 81 52 0.0 0.0 0.00 0.00 0.00 87 1012.5
20260906025519 81 52 0.0 0.0 0.00 0.00 0.00 87 1012.5
20260906025015 81 52 0.0 0.0 0.00 0.00 0.00 87 1012.5
20260906024449 82 52 0.0 0.0 0.00 0.00 0.00 86 1012.6
20260906023442 82 52 0.0 0.0 0.00 0.00 0.00 86 1012.6
20260906022918 82 52 0.0 0.0 0.00 0.00 0.00 86 1012.6
20260906021917 82 52 0.0 0.0 0.00 0.00 0.00 85 1012.4
20260906021406 82 52 0.0 0.0 0.00 0.00 0.00 85 1012.4
20260906020906 82 52 0.0 0.0 0.00 0.00 0.00 85 1012.4
20260906020406 83 52 0.0 0.0 0.00 0.00 0.00 85 1012.4
20260906015841 83 52 0.0 0.0 0.00 0.00 0.00 84 1012.3
20260906015322 83 52 0.0 0.0 0.00 0.00 0.00 84 1012.1
20260906014823 83 52 0.0 0.0 0.00 0.00 0.00 84 1012.0
20260906014319 83 52 0.0 0.0 0.00 0.00 0.00 83 1011.8
20260906013236 84 52 0.0 0.0 0.00 0.00 0.00 83 1011.8
20260906012734 84 52 0.0 0.0 0.00 0.00 0.00 82 1011.6
20260906012228 84 52 0.0 0.0 0.00 0.00 0.00 82 1011.5
20260906011723 84 52 0.0 0.0 0.00 0.00 0.00 81 1011.4
20260906010710 85 52 0.0 0.0 0.00 0.00 0.00 80 1011.2
20260906010209 85 52 0.0 0.0 0.00 0.00 0.00 80 1011.2
20260906005649 85 52 0.0 0.0 0.00 0.00 0.00 80 1011.1
20260906004553 85 52 0.0 0.0 0.00 0.00 0.00 79 1011.0
20260906003544 86 52 0.0 0.0 0.00 0.00 0.00 78 1011.1
20260906003042 86 52 0.0 0.0 0.00 0.00 0.00 77 1011.0
20260906002525 86 52 0.0 0.0 0.00 0.00 0.00 77 1011.0
20260906001959 86 52 0.0 2.0 0.00 0.00 0.00 76 1011.1
20260906001434 87 52 0.0 2.0 0.00 0.00 0.00 76 1011.2
20260906000913 87 99 0.0 2.0 0.00 0.00 0.00 76 1011.3
20260906000358 87 99 0.0 1.0 0.00 0.00 0.00 75 1011.3
20260905235846 87 99 0.0 1.0 0.00 0.00 0.00 75 1011.3
20260905234834 88 99 0.0 2.0 0.00 0.00 0.00 74 1011.3
20260905234335 88 85 0.0 1.0 0.00 0.00 0.00 74 1011.2
20260905233825 88 69 0.0 1.0 0.00 0.00 0.00 74 1011.2
20260905232816 88 112 0.0 0.0 0.00 0.00 0.00 73 1011.2
20260905232250 89 112 0.0 5.0 0.00 0.00 0.00 73 1011.1
20260905231723 89 113 1.0 5.0 0.00 0.00 0.00 73 1011.1
20260905230644 89 81 0.0 0.0 0.00 0.00 0.00 72 1011.1
20260905230118 90 81 0.0 2.0 0.00 0.00 0.00 72 1011.1
20260905225619 90 121 0.0 2.0 0.00 0.00 0.00 71 1011.1
20260905225045 90 20 0.0 0.0 0.00 0.00 0.00 71 1011.1
20260905224542 91 20 0.0 0.0 0.00 0.00 0.00 70 1011.2